Copenhagen, Denmark

12:08 AM CEST on August 26, 2016 (GMT +0200)
Kastrup

Weather History for EKCH - March, 2013

Change the Weather History Date:

Wednesday, March 6, 2013

  Actual Average Record
Temperature  
Mean Temperature 37 °F -  
Max Temperature 48 °F 43 °F 50 °F (2008)
Min Temperature 26 °F 32 °F 15 °F (2006)
Degree Days  
Heating Degree Days 28    
Moisture  
Dew Point 32 °F    
Average Humidity 79    
Maximum Humidity 100    
Minimum Humidity 44    
Precipitation  
Precipitation 0.00 in - - ()
Sea Level Pressure  
Sea Level Pressure 29.78 in    
Wind  
Wind Speed 4 mph ()    
Max Wind Speed 13 mph    
Max Gust Speed -    
Visibility 3.1 miles    
Events Fog    
Averages and records for this station are not official NWS values.
T = Trace of Precipitation, MM = Missing Value Source: Averaged Metar Reports

Daily Weather History Graph

Daily Weather History Graph

Search for Another Location

Airport or City:

Trip Planner

Search our weather history database for the weather conditions in past years. The results will help you decide how hot, cold, wet, or windy it might be!

Date:

Astronomy

Mar. 06, 2013 Rise Set
Actual Time 6:47 AM CET 5:54 PM CET
Civil Twilight 6:10 AM CET 6:31 PM CET
Nautical Twilight 5:28 AM CET 7:14 PM CET
Astronomical Twilight 4:44 AM CET 7:57 PM CET
Moon 3:28 AM CET (3/6) 11:32 AM CET (3/6)
Length of Visible Light 12h 20m
Length of Day
11h 07m
Waning Crescent, 33% of the Moon is Illuminated
Mar 6
Waning Crescent
Mar 11
New
Mar 19
First Quarter
Mar 27
Full
Apr 3
Last Quarter

Hourly Weather History & Observations

Time (CET) Temp. Windchill Dew Point Humidity Pressure Visibility Wind Dir Wind Speed Gust Speed Precip Events Conditions
12:20 AM 32.0 °F - 32.0 °F 100% 29.77 in 2.5 mi SSE 2.3 mph - N/A   Mist
12:50 AM 32.0 °F - 32.0 °F 100% 29.77 in 2.5 mi SSE 2.3 mph - N/A   Mist
1:00 AM 32 °F - 32 °F 98% 29.79 in 2 mi South 2.3 mph - -   Mist
1:20 AM 32.0 °F - 32.0 °F 100% 29.77 in 1.2 mi South 2.3 mph - N/A Fog Shallow Fog
1:50 AM 30.2 °F 26.7 °F 30.2 °F 100% 29.77 in 0.9 mi South 3.5 mph - N/A Fog Patches of Fog
2:20 AM 30.2 °F 24.3 °F 28.4 °F 93% 29.77 in 0.9 mi South 5.8 mph - N/A Fog Patches of Fog
2:50 AM 28.4 °F - 28.4 °F 100% 29.77 in 0.9 mi NNW 1.2 mph - N/A Fog Patches of Fog
3:20 AM 28.4 °F - 28.4 °F 100% 29.77 in 0.9 mi SSW 1.2 mph - N/A Fog Patches of Fog
3:50 AM 30.2 °F 26.7 °F 30.2 °F 100% 29.77 in 0.9 mi South 3.5 mph - N/A Fog Patches of Fog
4:00 AM 30 °F - 30 °F 98% 29.77 in 1 mi South 3.5 mph - - Fog Light Fog
4:20 AM 28.4 °F - 28.4 °F 100% 29.77 in 0.9 mi Calm Calm - N/A Fog Patches of Fog
4:50 AM 28.4 °F - 28.4 °F 100% 29.74 in 0.9 mi Calm Calm - N/A Fog Patches of Fog
5:20 AM 28.4 °F - 28.4 °F 100% 29.74 in 0.9 mi Calm Calm - N/A Fog Patches of Fog
5:50 AM 28.4 °F - 28.4 °F 100% 29.74 in 0.2 mi ENE 1.2 mph - N/A Fog Patches of Fog
6:20 AM 26.6 °F - 26.6 °F 100% 29.74 in 0.1 mi NE 2.3 mph - N/A Fog Patches of Fog
6:50 AM 30.2 °F 26.7 °F 30.2 °F 100% 29.74 in 0.1 mi ESE 3.5 mph - N/A Fog Patches of Fog
7:00 AM 29 °F - 29 °F 100% 29.76 in 0 mi ESE 2.3 mph - - Fog Patches of Fog
7:20 AM 32.0 °F - 32.0 °F 100% 29.74 in 0.3 mi ESE 1.2 mph - N/A Fog Patches of Fog
7:50 AM 32.0 °F - 32.0 °F 100% 29.77 in 0.5 mi SSE 2.3 mph - N/A Fog Patches of Fog
8:20 AM 33.8 °F 30.8 °F 33.8 °F 100% 29.77 in 0.9 mi SSE 3.5 mph - N/A   Mist
8:50 AM 37.4 °F 33.8 °F 35.6 °F 93% 29.77 in 1.6 mi SSE 4.6 mph - N/A   Mist
9:20 AM 39.2 °F 37.0 °F 33.8 °F 81% 29.77 in 3.1 mi SSE 3.5 mph - N/A   Mist
9:50 AM 41.0 °F 39.0 °F 35.6 °F 81% 29.77 in 3.7 mi SE 3.5 mph - N/A   Unknown
10:00 AM 41 °F - 35 °F 72% 29.78 in 4 mi SSE 2.3 mph - -   Mist
10:20 AM 42.8 °F - 33.8 °F 70% 29.77 in 5.6 mi ESE 2.3 mph - N/A   Unknown
10:50 AM 44.6 °F 43.1 °F 33.8 °F 66% 29.77 in - ESE 3.5 mph - N/A   Clear
11:20 AM 44.6 °F 42.2 °F 32.0 °F 61% 29.77 in 5.6 mi SE 4.6 mph - N/A   Unknown
11:50 AM 42.8 °F 41.1 °F 35.6 °F 76% 29.77 in 5.6 mi ESE 3.5 mph - N/A   Unknown
12:20 PM 44.6 °F - 33.8 °F 66% 29.77 in - ESE 2.3 mph - N/A   Clear
12:50 PM 46.4 °F - 33.8 °F 62% 29.77 in - Variable 2.3 mph - N/A   Clear
1:00 PM 49 °F - 34 °F 44% 29.78 in 7 mi ESE 2.3 mph - -   Partly Cloudy
1:20 PM 46.4 °F 45.2 °F 33.8 °F 62% 29.77 in - East 3.5 mph - N/A   Clear
1:50 PM 46.4 °F 45.2 °F 33.8 °F 62% 29.77 in - ENE 3.5 mph - N/A   Clear
2:20 PM 44.6 °F 40.7 °F 33.8 °F 66% 29.77 in - NNE 6.9 mph - N/A   Clear
2:50 PM 46.4 °F 45.2 °F 32.0 °F 57% 29.77 in - NNE 3.5 mph - N/A   Clear
3:20 PM 46.4 °F 45.2 °F 32.0 °F 57% 29.77 in - NNE 3.5 mph - N/A   Clear
3:50 PM 46.4 °F 45.2 °F 32.0 °F 57% 29.77 in - North 3.5 mph - N/A   Clear
4:00 PM 47 °F - 32 °F 45% 29.78 in 11 mi North 3.5 mph - -   Clear
4:20 PM 44.6 °F 41.4 °F 32.0 °F 61% 29.77 in - North 5.8 mph - N/A   Clear
4:50 PM 44.6 °F 40.7 °F 32.0 °F 61% 29.77 in - North 6.9 mph - N/A   Clear
5:20 PM 44.6 °F 38.4 °F 32.0 °F 61% 29.77 in - North 12.7 mph - N/A   Clear
5:50 PM 44.6 °F 38.4 °F 35.6 °F 71% 29.77 in 5.6 mi North 12.7 mph - N/A   Unknown
6:20 PM 42.8 °F 36.6 °F 35.6 °F 76% 29.77 in 5.0 mi North 11.5 mph - N/A   Unknown
6:50 PM 42.8 °F 37.0 °F 33.8 °F 70% 29.77 in 5.0 mi North 10.4 mph - N/A   Unknown
7:00 PM 44 °F - 34 °F 57% 29.80 in 5 mi North 10.4 mph - -   Mist
7:20 PM 42.8 °F 36.6 °F 33.8 °F 70% 29.80 in 5.0 mi North 11.5 mph - N/A   Unknown
7:50 PM 41.0 °F 34.3 °F 33.8 °F 76% 29.80 in 4.3 mi North 11.5 mph - N/A   Unknown
8:20 PM 41.0 °F 34.3 °F 35.6 °F 81% 29.80 in 3.7 mi North 11.5 mph - N/A   Unknown
8:50 PM 41.0 °F 35.2 °F 35.6 °F 81% 29.80 in 3.7 mi NNE 9.2 mph - N/A   Unknown
9:20 PM 41.0 °F 35.8 °F 35.6 °F 81% 29.83 in 3.7 mi NE 8.1 mph - N/A   Unknown
9:50 PM 41.0 °F 35.2 °F 33.8 °F 76% 29.83 in 5.6 mi ENE 9.2 mph - N/A   Unknown
10:00 PM 42 °F - 34 °F 65% 29.86 in 6 mi ENE 8.1 mph - -   Mist
10:20 PM 41.0 °F 35.8 °F 33.8 °F 76% 29.86 in 5.6 mi ENE 8.1 mph - N/A   Unknown
10:50 PM 41.0 °F 35.8 °F 33.8 °F 76% 29.86 in 5.6 mi East 8.1 mph - N/A   Unknown
11:20 PM 41.0 °F 35.2 °F 30.2 °F 65% 29.86 in - East 9.2 mph - N/A   Clear
11:50 PM 41.0 °F 35.8 °F 30.2 °F 65% 29.86 in - East 8.1 mph - N/A   Clear